User: anonymous   Login
Location: Unspecified
(0.0000°N, 0.0000°E)
Time: 18:21:38
(UTC+00:00)
Language:

Tiangong 1 - Orbit

View from above orbital plane
View from above orbital plane
View from above satellite
View from above satellite

Ground track
Ground track

The orbit data is extracted from the following two-line orbital elements,

1 37820U 11053A   17266.21469753  .00047347  00000-0  19157-3 0  9990
2 37820  42.7580 317.3966 0018851  54.9689 351.1669 15.85226140343495
Epoch (UTC): 23 September 2017 05:09:09
Eccentricity: 0.0018851
inclination: 42.7580°
perigee height: 303 km
apogee height: 328 km
right ascension of ascending node: 317.3966°
argument of perigee: 54.9689°
revolutions per day: 15.85226140
mean anomaly at epoch: 351.1669°
orbit number at epoch: 34349

The dashed part of the orbit path shows where the satellite is in the earth's shadow,  

DLR